Preview of NWS' New Version of Forecast
This preview is not operational and should not be used for support decisions.
Latest weather observations around

Bangor, Bangor International Airport (KBGR)

Using English Units (Switch to International System of Units)
Date/ Time (EST) Wind (mph) Vis. (mi) Weather Sky Cond. Temp (°F) Rel. Humidity Wind Chill (°F) Heat Index (°F) Pressure Precip. (in)
Air Dwpt 6 hour Altimeter (inHg) Sea level (inHg) 1 hr 3 hr 6 hr
Max Min
Jan 16 16:53 SSW 6 10 Partly Cloudy FEW045 SCT080 32 21     64% 26   29.79 29.8      
Jan 16 15:53 SW 10 10 Mostly Cloudy BKN045 BKN080 BKN200 34 21     59% 26   29.78 29.79      
Jan 16 14:53 WSW 9 10 Mostly Cloudy SCT040 BKN070 BKN200 34 21     59% 27   29.78 29.79      
Jan 16 13:53 WSW 8 10 Mostly Cloudy BKN032 BKN045 34 23     64% 27   29.77 29.78      
Jan 16 12:53 SSW 11 10 Cloudy OVC043 34 24     67% 26   29.77 29.78      
Jan 16 11:53 SSW 14 10 Cloudy OVC039 33 23     66% 23   29.8 29.81      
Jan 16 10:53 SSW 13 10 Cloudy OVC040 32 23     69% 22   29.84 29.85      
Jan 16 09:53 S 15 10 Mostly Cloudy FEW028 BKN035 BKN042 31 22     69% 20   29.87 29.88      
Jan 16 08:53 SSW 10 10 Mostly Cloudy BKN023 BKN035 30 23     75% 21   29.9 29.91      
Jan 16 07:53 SSW 6 10 Cloudy BKN025 OVC031 29 24     82% 23   29.9 29.9      
Jan 16 06:53 SSE 7 10 Cloudy OVC025 28 22     78% 21   29.9 29.91      
Jan 16 05:53 SE 3 10 Cloudy OVC027 25 19     78% 21   29.93 29.94      
Jan 16 05:19 SSE 5 10 Cloudy BKN029 OVC065 24 18     77% 18   29.93        
Jan 16 04:53 SE 5 10 Cloudy SCT039 OVC065 23 18     81% 17   29.94 29.95      
Jan 16 03:53 Calm 10 Cloudy FEW037 OVC049 22 18     84%     29.97 29.98      
Jan 16 02:53 Calm 10 Cloudy OVC048 22 17     81%     29.99 30      
Jan 16 01:53 S 3 10 Cloudy OVC050 22 17     81% 17   30.01 30.02      
Jan 16 00:53 Calm 10 Cloudy OVC055 21 17     84%     30.02 30.03      
Jan 15 23:53 S 3 10 Cloudy OVC055 21 16     81% 16   30.03 30.04      
Jan 15 22:53 SSW 3 10 Mostly Cloudy BKN055 20 15     81% 15   30.06 30.06      
Jan 15 21:53 SSE 6 10 Cloudy OVC050 21 16     81% 13   30.06 30.07      
Jan 15 20:53 Calm 10 Cloudy OVC046 22 17     81%     30.06 30.08      
Jan 15 19:53 Calm 10 Cloudy OVC046 23 17     78%     30.06 30.07      
Jan 15 18:53 WNW 3 10 Cloudy OVC047 23 15     71% 19   30.06 30.07      
Jan 15 17:53 Calm 10 Mostly Cloudy BKN045 BKN200 22 15     75%     30.04 30.06      
Jan 15 16:53 WNW 5 10 Mostly Cloudy BKN046 BKN200 24 14     65% 18   30.04 30.05      
Jan 15 15:53 NW 6 10 Partly Cloudy FEW050 SCT200 26 14     60% 19   30.03 30.04      
Jan 15 14:53 NW 7 10 Partly Cloudy FEW048 SCT200 26 14     60% 18   30.02 30.03      
Jan 15 13:53 NNW 8 10 Partly Cloudy FEW048 SCT200 27 15     60% 19   30 30.02      
Jan 15 12:53 NW 10 10 Mostly Cloudy SCT050 BKN200 26 14     60% 16   30 30.02      
Jan 15 11:53 NNW 9 10 Partly Cloudy SCT050 SCT200 24 14     65% 14   30.02 30.03      
Jan 15 10:53 N 6 10 Clear   22 12     65% 14   30.04 30.05      
Jan 15 09:53 NE 3 10 Mostly Cloudy BKN050 19 10     67% 14   30.05 30.07      
Jan 15 08:53 Calm 10 Cloudy OVC050 17 10     73%     30.04 30.05      
Jan 15 07:53 Calm 10 Mostly Cloudy BKN050 14 8     77%     30.03 30.04      
Jan 15 06:53 Calm 10 Mostly Cloudy BKN050 12 7     80%     30.02 30.03      
Jan 15 05:53 Calm 10 Cloudy OVC050 10 7     87%     30.01 30.03      
Jan 15 04:53 Calm 10 Partly Cloudy SCT250 8 4     83%     29.99 30.01      
Jan 15 03:53 Calm 10 Partly Cloudy SCT250 7 3     83%     29.99 30.01      
Jan 15 02:53 NNW 5 10 Partly Cloudy SCT250 8 4     83% -1   29.99 30.01      
Jan 15 01:53 Calm 10 Partly Cloudy SCT250 7 4     87%     30 30.01      
Jan 15 00:53 Calm 10 Mostly Clear FEW250 8 5     87%     30.01 30.02      
Jan 14 23:53 Calm 10 Mostly Clear FEW250 12 6     77%     30.02 30.03      
Jan 14 22:53 Calm 10 Mostly Clear FEW250 8 5     87%     30.05 30.06      
Jan 14 21:53 Calm 10 Mostly Clear FEW250 8 4     83%     30.06 30.08      
Jan 14 20:53 Calm 10 Mostly Clear FEW250 8 5     87%     30.07 30.09      
Jan 14 19:53 Calm 10 Mostly Clear FEW250 10 6     84%     30.09 30.11      
Jan 14 18:53 Calm 10 Mostly Clear FEW250 11 6     80%     30.11 30.14      
Jan 14 17:53 Calm 10 Mostly Clear FEW250 12 6     77%     30.13 30.14      
Jan 14 16:53 Calm 10 Mostly Clear FEW250 15 6     67%     30.13 30.15      
Jan 14 15:53 NNE 3 10 Clear CLR 20 6     54% 15   30.14 30.16      
Jan 14 14:53 NW 3 10 Clear CLR 20 5     52% 15   30.17 30.19      
Jan 14 13:53 NNW 6 10 Clear CLR 20 5     52% 12   30.19 30.2      
Jan 14 12:53 Calm 10 Clear CLR 18 5     56%     30.21 30.23      
Jan 14 11:53 Calm 10 Clear CLR 15 4     61%     30.25 30.27      
Jan 14 10:53 Calm 10 Clear CLR 13 3     64%     30.29 30.31      
Jan 14 09:53 Calm 10 Clear CLR 9 3     76%     30.32 30.34      
Jan 14 08:53 Calm 10 Clear CLR 6 1     79%     30.33 30.34      
Jan 14 07:53 N 3 10 Mostly Clear FEW200 2 -2     83% -5   30.33 30.35      
Jan 14 06:53 NNE 3 10 Mostly Clear FEW200 1 -3     83% -6   30.33 30.35      
Jan 14 05:53 NNW 3 10 Clear CLR 1 -2     87% -6   30.34 30.35      
Jan 14 04:53 NNW 3 10 Clear CLR 2 -2     83% -5   30.35 30.36      
Jan 14 03:53 Calm 10 Clear CLR 2 -1     87%     30.37 30.39      
Jan 14 02:53 Calm 10 Clear CLR 3 -1     83%     30.38 30.4      
Jan 14 01:53 Calm 10 Clear CLR 5 2     87%     30.39 30.4      
Jan 14 00:53 NNW 3 10 Clear CLR 5 2     87% -2   30.38 30.4      
Jan 13 23:53 Calm 10 Clear CLR 6 2     83%     30.39 30.41      
Jan 13 22:53 Calm 10 Clear CLR 6 3     87%     30.42 30.43      
Jan 13 21:53 NW 3 10 Clear CLR 8 4     83% 2   30.43 30.44      
Jan 13 20:53 NW 3 10 Clear CLR 10 4     76% 4   30.41 30.43      
Jan 13 19:53 NNW 5 10 Clear CLR 11 6     80% 3   30.41 30.43      
Jan 13 18:53 Calm 10 Clear CLR 12 7     80%     30.42 30.43      
Jan 13 17:53 Calm 10 Clear CLR 14 6     70%     30.41 30.42      
May 15 06:53 S 7 0.25 Fog OVC002 49 49     100% 46   29.81 29.8      
May 15 03:20 S 6 1 Fog/Mist OVC002 49 49     100% 46   29.83        
May 14 18:53 S 14 10 Mostly Clear FEW250 56 49     77%     29.82 29.82      
May 14 12:53 S 14 10 Mostly Clear FEW030 61 48     62%     29.89 29.89      
May 14 07:53 SSW 10 10 Cloudy OVC011 49 44     83% 45   30 30      
May 13 20:53 S 9 10 Mostly Clear FEW250 49 45     86% 45   30.08 30.08      
May 13 13:53 SSE 10 10 Mostly Clear FEW060 67 28     23%     30.12 30.11      
May 13 05:31 Calm 0.25 Fog VV001 36 36     100%     30.17        
May 12 19:53 S 9 10 Mostly Cloudy FEW050 BKN250 50 30     46% 46   30.1 30.1      
May 12 01:53 S 3 10 Clear CLR 40 23     50% 38   30.16 30.16      
Jun 11 12:53 SSW 15 10 Mostly Cloudy SCT150 BKN250 87 59     39%   86 29.75 29.74      
Jun 10 22:53 SSW 6 10 Clear   58 51     78%     29.92 29.91      
Jun 10 20:53 S 7 10 Mostly Cloudy FEW060 BKN250 61 51     70%     29.94 29.93      
Jun 10 17:53   10 Partly Cloudy FEW060 SCT250 68 48     49%     29.91 29.9      
Jun 09 21:53 W 7 10 Mostly Cloudy BKN120 57 55     93%     29.63 29.62      
Jun 09 17:59 3 10 Thunderstorms and Rain FEW055 SCT070 OVC090 55 53     93%     29.51   0    
Jun 09 17:53 6 10 Light Rain SCT070 OVC090 55 53     93%     29.51 29.5 0    
Jun 08 18:53   10 Mostly Cloudy BKN250 68 43     40%     29.89 29.88      
Jun 08 16:53   10 Mostly Cloudy SCT150 BKN250 76 50     40%   75 29.87 29.87      
Jun 06 08:45   10 Mostly Cloudy SCT015 BKN080 BKN150 50 41     71%     29.98        
Jun 05 18:53 SSE 6 10 Cloudy FEW060 OVC100 57 48     72%     29.99 29.99